EA5CBT-13 Weather Reports


time (UTC)temp
C
wind
direction
speed
KPH
gust
KPH
rain 1hr
cm
rain 24hr
cm
rain mn
cm
humidity
%
barometer
mb
20260504081549 19 225 6.4 9.7 0.00 0.00 0.00 75 1010.5
20260504080541 19 225 4.8 6.4 0.00 0.00 0.00 76 1010.4
20260504050529 18 225 1.6 3.2 0.00 0.00 0.00 82 1009.7
20260504045540 18 225 1.6 6.4 0.00 0.00 0.00 83 1009.7
20260504044613 18 218 3.2 4.8 0.00 0.00 0.00 83 1009.7
20260504043626 18 201 4.8 6.4 0.00 0.00 0.00 83 1009.6
20260504042558 17 180 6.4 8.0 0.00 0.00 0.00 83 1009.6
20260504041551 17 180 4.8 6.4 0.00 0.00 0.00 83 1009.7
20260504040603 18 225 1.6 3.2 0.00 0.00 0.00 83 1009.6
20260504035557 18 225 1.6 3.2 0.00 0.00 0.00 83 1009.7
20260504034528 18 187 3.2 4.8 0.00 0.00 0.00 83 1009.8
20260504033521 18 180 3.2 6.4 0.00 0.00 0.00 83 1010.0
20260504032634 18 203 1.6 3.2 0.00 0.00 0.00 83 1010.1
20260504031606 18 203 1.6 3.2 0.00 0.00 0.00 83 1010.1
20260504030558 18 180 4.8 6.4 0.00 0.00 0.00 84 1010.2
20260504025550 17 225 1.6 3.2 0.00 0.00 0.00 84 1010.3
20260504024543 17 225 0.0 3.2 0.00 0.00 0.00 84 1010.3
20260504023557 17 225 0.0 3.2 0.00 0.00 0.00 84 1010.3
20260504022529 17 225 0.0 3.2 0.00 0.00 0.00 85 1010.3
20260504021521 17 225 1.6 3.2 0.00 0.00 0.00 84 1010.3
20260504020614 17 0.0 1.6 0.00 0.00 0.00 84 1010.3
20260504015606 17 208 3.2 4.8 0.00 0.00 0.00 84 1010.4
20260504014559 17 211 1.6 3.2 0.00 0.00 0.00 84 1010.5
20260504013552 17 186 4.8 6.4 0.00 0.00 0.00 83 1010.6
20260504012544 17 183 4.8 6.4 0.00 0.00 0.00 82 1010.6
20260504011537 18 180 4.8 8.0 0.00 0.00 0.00 81 1010.6
20260504010530 18 181 3.2 6.4 0.00 0.00 0.00 80 1010.7
20260504005522 18 180 3.2 4.8 0.00 0.00 0.00 81 1010.7
20260504004616 18 185 4.8 8.0 0.00 0.00 0.00 81 1010.7
20260504003609 18 186 4.8 6.4 0.00 0.00 0.00 81 1010.8
20260504002641 18 180 6.4 8.0 0.00 0.00 0.00 80 1010.9
20260504001613 18 180 4.8 8.0 0.00 0.00 0.00 80 1010.9
20260504000546 18 225 4.8 6.4 0.00 0.00 0.00 80 1011.0
20260503235538 18 203 6.4 12.9 0.00 0.00 0.00 80 1010.8
20260503234612 18 189 4.8 8.0 0.00 0.00 0.00 80 1010.9
20260503233523 18 225 3.2 6.4 0.00 0.00 0.00 80 1011.0
20260503232516 18 214 4.8 6.4 0.00 0.00 0.00 81 1011.1
20260503231609 18 199 3.2 6.4 0.00 0.00 0.00 82 1011.1
20260503230602 18 180 4.8 9.7 0.00 0.00 0.00 83 1011.1
20260503225554 18 180 4.8 9.7 0.00 0.00 0.00 83 1011.1
20260503224547 18 180 6.4 8.0 0.00 0.00 0.00 83 1011.2
20260503223539 18 180 4.8 8.0 0.00 0.00 0.00 83 1011.2
20260503222532 18 180 6.4 9.7 0.00 0.00 0.00 82 1011.2
20260503221525 18 180 4.8 8.0 0.00 0.00 0.00 82 1011.2
20260503220517 18 180 6.4 8.0 0.00 0.00 0.00 82 1011.3
20260503215611 18 180 6.4 11.3 0.00 0.00 0.00 81 1011.4
20260503214624 18 180 4.8 11.3 0.00 0.00 0.00 80 1011.4
20260503213554 18 180 6.4 12.9 0.00 0.00 0.00 81 1011.5
20260503212546 18 180 4.8 9.7 0.00 0.00 0.00 81 1011.6
20260503211539 18 180 3.2 6.4 0.00 0.00 0.00 81 1011.6
20260503210532 18 180 6.4 9.7 0.00 0.00 0.00 81 1011.5
20260503205523 18 173 6.4 8.0 0.00 0.00 0.00 82 1011.4
20260503204537 18 167 4.8 8.0 0.00 0.00 0.00 82 1011.4
20260503203608 18 144 4.8 6.4 0.00 0.00 0.00 82 1011.4
20260503202600 18 170 4.8 11.3 0.00 0.00 0.00 82 1011.3
20260503201553 18 166 6.4 11.3 0.00 0.00 0.00 82 1011.2
20260503200546 18 135 6.4 8.0 0.00 0.00 0.00 82 1011.1
20260503195538 18 135 3.2 6.4 0.00 0.00 0.00 82 1010.8
20260503194610 18 126 4.8 9.7 0.00 0.00 0.00 82 1010.7
20260503193522 18 129 4.8 6.4 0.00 0.00 0.00 81 1010.6
20260503192615 18 130 4.8 8.0 0.00 0.00 0.00 81 1010.3
20260503191607 18 125 4.8 9.7 0.00 0.00 0.00 81 1010.1
20260503190559 19 45 6.4 8.0 0.00 0.00 0.00 81 1010.1
20260503185551 19 131 3.2 6.4 0.00 0.00 0.00 80 1009.9
20260503184543 19 135 4.8 6.4 0.00 0.00 0.00 80 1009.7
20260503183535 19 118 6.4 9.7 0.00 0.00 0.00 79 1009.7
20260503182527 19 136 6.4 11.3 0.00 0.00 0.00 79 1009.7
20260503181519 19 131 6.4 11.3 0.00 0.00 0.00 78 1009.6
20260503180612 20 118 4.8 6.4 0.00 0.00 0.00 77 1009.4
20260503175625 20 103 4.8 8.0 0.00 0.00 0.00 76 1009.4
20260503174617 20 71 4.8 9.7 0.00 0.00 0.00 75 1009.2
20260503173550 20 103 6.4 14.5 0.00 0.00 0.00 74 1009.0
20260503172541 21 135 6.4 11.3 0.00 0.00 0.00 72 1009.0
20260503171555 21 108 8.0 16.1 0.00 0.00 0.00 72 1008.9
20260503170527 21 135 4.8 6.4 0.00 0.00 0.00 71 1008.9
20260503150615 22 128 9.7 14.5 0.00 0.00 0.00 66 1009.6
20260503130522 23 157 6.4 12.9 0.00 0.00 0.00 62 1011.0
20260503110551 24 45 6.4 8.0 0.00 0.00 0.00 60 1012.2